Orbital Elements at Epoch 2459000.5 (2020-May-31.0) TDB
Reference: JPL 14 (heliocentric ecliptic J2000)
Element | Value | Uncertainty (1-sigma) | Units |
e | .1190030027290143 | 5.9068e-08 | |
a | 3.026146190474664 | 2.1846e-08 | au |
q | 2.666025707111211 | 1.8657e-07 | au |
i | 1.796854230951669 | 7.2303e-06 | deg |
node | 197.9696776945361 | 0.00013728 | deg |
peri | 202.4281101349983 | 0.00013955 | deg |
M | 138.8642255835958 | 2.6981e-05 | deg |
tp | 2458258.812158789663 (2018-May-20.31215879) | 0.00013979 | TDB |
period | 1922.796326509476 5.26 | 2.0821e-05 5.7e-08 | d yr |
n | .187227318378292 | 2.0274e-09 | deg/d |
Q | 3.386266673838116 | 2.4445e-08 | au |
|
| | Orbit Determination Parameters
Additional Information
|